Regional Weather Roundup
Issued by NWS Northern Indiana

Home | Current Version | Previous Version | Graphics & Text | Print | Product List | Glossary On
Versions: 1 2 3 4 5 6 7 8 9 10 11 12 13 14 15 16 17 18 19 20 21 22 23 24 25 26 27 28 29 30 31 32 33 34 35 36 37 38 39 40 41 42 43 44 45 46 47 48 49 50
000
ASUS43 KIWX 251500
RWRIWX

KIWX WEATHER ROUNDUP
NATIONAL WEATHER SERVICE NORTHERN INDIANA
1000 AM EST SAT FEB 25 2017

NOTE: "FAIR" INDICATES FEW OR NO CLOUDS BELOW 12,000 FEET WITH NO
SIGNIFICANT WEATHER AND/OR OBSTRUCTIONS TO VISIBILITY.

* THESE STATIONS ARE NOT UNDER NWS QUALITY CONTROL. THEY ALSO MAY NOT
  REPORT WEATHER SUCH AS PRECIPITATION OR FOG.

INZ001>027-251600-
NORTHERN INDIANA

CITY           SKY/WX    TMP DP  RH WIND       PRES   REMARKS
GARY*          CLOUDY    27  12  54 W15G31    29.81R WCI  15
MICHIGAN CITY* FLURRIES  27  19  74 W15G24    29.77R WCI  15
KNOX*          CLOUDY    27   1  33 W21G29    29.77R WCI  13
SOUTH BEND     CLOUDY    26  18  71 W23G31    29.73R WCI  11
ELKHART*       FLURRIES  27  19  74 W18       29.71R WCI  13
GOSHEN         CLOUDY    28  21  75 W16G28    29.70R WCI  16
ANGOLA*        CLOUDY    28  27  93 W10       29.65R WCI  19
FORT WAYNE     FLURRIES  32  24  72 W16G26    29.70R WCI  21

$$
INZ028>050-251600-
CENTRAL INDIANA

CITY           SKY/WX    TMP DP  RH WIND       PRES   REMARKS
LAFAYETTE      CLOUDY    25  18  74 W22G33    29.84R WCI  10
KOKOMO*        FLURRIES  28  23  81 W24G35    29.78R WCI  14
MUNCIE*        CLOUDY    31  25  78 W20G31    29.76R WCI  19
INDIANAPOLIS   FLURRIES  28  19  69 W24G31    29.84R WCI  14

$$
MIZ043>046-050>051-056>058-064>065-071>073-077>080-251600-
SOUTHWEST LOWER MICHIGAN

CITY           SKY/WX    TMP DP  RH WIND       PRES   REMARKS
BATTLE CREEK   FLURRIES  28  22  78 W16G29    29.64R WCI  16
BENTON HARBOR  FLURRIES  26  18  71 W20G31    29.72R WCI  12
COLDWATER*     LGT SNOW  30  26  85 W14G26    29.64R WCI  19
HILLSDALE*     LGT SNOW  30  27  86 W16       29.60R WCI  19
HOLLAND        LGT SNOW  27  20  75 W16G24    29.67R WCI  15
GRAND RAPIDS   LGT SNOW  27  21  78 W20       29.62R VSB 1   WCI  13
KALAMAZOO      HAZE      28  18  66 W21G29    29.66R VSB 1   WCI  15
STURGIS*       FLURRIES  28  22  79 W17G24    29.66R WCI  16
THREE RIVERS*  FLURRIES  27  21  78 W20G29    29.68R WCI  14

$$
OHZ001>008-015>018-024>025-251600-
NORTHWEST OHIO

CITY           SKY/WX    TMP DP  RH WIND       PRES   REMARKS
DEFIANCE       CLOUDY    33  24  69 W9G22     29.67R WCI  25
FINDLAY        FLURRIES  36  30  79 W20       29.65R
TOLEDO EXPRESS FLURRIES  34  30  85 W26G32    29.63R WCI  21
TOLEDO METCALF LGT SNOW  36  33  89 W20G28    29.63R FOG
LIMA           LGT SNOW  33  31  92 W23       29.68R FOG     WCI  21

$$
AND FOR LAKE MICHIGAN COASTAL AND OPEN LAKE BUOY OBSERVATIONS

STATION/POSITION TEMP    WIND        PRES    VSBY  WAVE
                 AIR SEA DIR/SP/G                  HT/PER
                 (F)     (DEG/KT/KT) (MB)    (MI)  (FT/S)
CALUMET HARBOR    23     280/ 10/ 17 1008.5R
MICHIGAN CITY     25     260/ 27/ 31   N/A
BURNS HARBOR      26     290/ 23/ 25 1008.8R
SAINT JOSEPH      27     280/ 21/ 25 1006.4

$$
&&




USA.gov is the U.S. government's official web portal to all federal, state and local government web resources and services.